N5RML-1 Weather Reports


Display with metric or nautical units.
time (UTC)temp
F
wind
direction
speed
MPH
gust
MPH
rain 1hr
in
rain 24hr
in
rain mn
in
humidity
%
barometer
mb
20260906045030 77 0.0 0.0 0.00 1.51 1.51 99 1013.4
20260906044019 77 0.0 0.0 0.00 1.51 1.51 99 1013.6
20260906043047 77 0.0 0.0 0.00 1.51 1.51 99 1013.7
20260906042055 77 0.0 0.0 0.00 1.51 1.51 99 1013.6
20260906041027 77 0.0 0.0 0.00 1.51 1.51 99 1013.5
20260906040033 77 0.0 0.0 0.00 1.51 1.51 99 1013.5
20260906035025 77 0.0 0.0 0.00 1.51 1.51 99 1013.5
20260906034031 77 0.0 0.0 0.00 1.51 1.51 99 1013.5
20260906033020 77 0.0 0.0 0.00 1.51 1.51 99 1013.6
20260906032028 77 0.0 0.0 0.00 1.51 1.51 99 1013.5
20260906031036 77 0.0 0.0 0.00 1.51 1.51 99 1013.6
20260906030046 77 0.0 0.0 0.00 1.51 1.51 99 1013.5
20260906025034 77 0.0 0.0 0.00 1.51 1.51 99 1013.4
20260906024023 77 0.0 0.0 0.00 1.51 1.51 99 1013.6
20260906023031 77 0.0 0.0 0.00 1.51 1.51 99 1013.4
20260906022020 77 0.0 0.0 0.00 1.51 1.51 99 1013.4
20260906021028 76 0.0 0.0 0.01 1.51 1.51 98 1013.5
20260906020036 76 0.0 0.0 0.01 1.51 1.51 98 1013.5
20260906015026 76 0.0 0.0 0.01 1.51 1.51 98 1013.4
20260906014034 76 0.0 0.0 0.01 1.51 1.51 98 1013.3
20260906013023 76 0.0 0.0 0.01 1.51 1.51 98 1013.2
20260906012031 76 0.0 0.0 0.01 1.51 1.51 98 1013.2
20260906011021 76 0.0 0.0 0.00 1.50 1.50 98 1013.3
20260906010029 76 0.0 0.0 0.00 1.50 1.50 98 1013.3
20260906005057 77 0.0 0.0 0.00 1.50 1.50 98 1013.5
20260906004026 76 0.0 0.0 0.00 1.50 1.50 98 1013.4
20260906003034 76 0.0 0.0 0.00 1.50 1.50 97 1013.3
20260906002104 76 0.0 0.0 0.00 1.50 1.50 97 1013.4
20260906001032 76 0.0 0.0 0.00 1.50 1.50 97 1013.5
20260906000022 76 0.0 0.0 0.03 1.50 1.50 97 1013.6
20260905235030 76 0.0 0.0 0.12 1.50 1.50 96 1013.3
20260905234019 75 0.0 0.0 0.39 1.50 1.50 96 1013.2
20260905233027 75 236 1.0 2.0 1.01 1.50 1.50 96 1013.2
20260905232035 75 158 1.0 2.0 1.38 1.50 1.50 96 1013.4
20260905231027 76 0.0 0.0 1.45 1.50 1.50 96 1013.7
20260905230032 75 152 3.0 4.0 1.42 1.47 1.47 95 1013.8
20260905225022 76 137 4.0 5.0 1.33 1.38 1.38 94 1014.0
20260905224029 76 139 7.0 22.0 1.06 1.11 1.11 94 1014.3
20260905223057 79 189 5.0 8.0 0.44 0.49 0.49 93 1015.3
20260905222027 83 126 6.0 8.0 0.07 0.12 0.12 87 1014.1
20260905221034 88 181 6.0 10.0 0.00 0.05 0.05 73 1013.8
20260905220044 90 0 0.0 2.0 0.00 0.05 0.05 71 1013.3
20260905215112 91 23 0.0 1.0 0.00 0.05 0.05 69 1013.2
20260905214022 92 49 1.0 3.0 0.00 0.05 0.05 69 1013.3
20260905213030 93 0.0 0.0 0.00 0.05 0.05 68 1013.1
20260905212021 92 99 2.0 5.0 0.00 0.05 0.05 68 1013.1
20260905211047 92 109 3.0 4.0 0.00 0.05 0.05 68 1013.0
20260905210035 90 359 2.0 3.0 0.00 0.05 0.05 70 1013.1
20260905205024 90 142 2.0 4.0 0.00 0.05 0.05 70 1013.2
20260905204032 90 132 1.0 2.0 0.00 0.05 0.05 73 1013.2
20260905203022 91 151 3.0 5.0 0.00 0.05 0.05 70 1013.2
20260905202029 92 45 0.0 2.0 0.00 0.05 0.05 70 1013.4
20260905201019 94 356 2.0 5.0 0.00 0.05 0.05 70 1013.4
20260905200047 92 21 3.0 5.0 0.00 0.05 0.05 69 1013.4
20260905195055 93 310 3.0 4.0 0.00 0.05 0.05 66 1013.5
20260905194024 93 350 3.0 5.0 0.00 0.05 0.05 64 1013.7
20260905193052 94 26 3.0 4.0 0.00 0.05 0.05 63 1014.0
20260905192022 94 110 2.0 5.0 0.00 0.05 0.05 62 1014.0
20260905191030 94 108 2.0 5.0 0.00 0.05 0.05 63 1014.1
20260905190019 93 44 2.0 4.0 0.00 0.05 0.05 62 1014.5
20260905185027 93 352 3.0 4.0 0.00 0.05 0.05 63 1014.6
20260905184135 92 19 3.0 4.0 0.00 0.05 0.05 67 1014.8
20260905183108 91 62 2.0 4.0 0.00 0.05 0.05 69 1014.9
20260905182032 91 128 3.0 5.0 0.00 0.05 0.05 71 1015.0
20260905181022 91 69 2.0 3.0 0.00 0.05 0.05 72 1015.1
20260905180051 89 0.0 0.0 0.00 0.05 0.05 75 1015.1
20260905175020 87 0.0 0.0 0.00 0.05 0.05 76 1015.3
20260905174027 85 0.0 0.0 0.00 0.05 0.05 83 1015.3
20260905173036 84 0.0 0.0 0.00 0.05 0.05 84 1015.5
20260905172025 83 182 2.0 4.0 0.00 0.05 0.05 85 1015.4
20260905171053 82 201 1.0 3.0 0.00 0.05 0.05 86 1015.6
20260905170023 82 165 3.0 4.0 0.00 0.05 0.05 86 1015.8
20260905165030 82 169 4.0 6.0 0.00 0.05 0.05 85 1015.9
20260905164020 82 172 3.0 5.0 0.00 0.05 0.05 85 1015.9
20260905163028 81 163 4.0 5.0 0.00 0.05 0.05 86 1015.9
20260905162036 82 146 4.0 7.0 0.00 0.05 0.05 84 1016.1
20260905161025 85 155 6.0 8.0 0.00 0.05 0.05 80 1016.2
20260905160033 86 117 1.0 2.0 0.00 0.05 0.05 80 1016.1
20260905155023 88 32 1.0 3.0 0.00 0.05 0.05 81 1015.8
20260905154031 87 40 2.0 4.0 0.00 0.05 0.05 83 1015.7
20260905153040 88 28 3.0 5.0 0.00 0.05 0.05 81 1015.7
20260905152029 87 58 1.0 5.0 0.00 0.05 0.05 84 1015.7
20260905151037 86 68 1.0 3.0 0.00 0.05 0.05 85 1015.6
20260905150025 85 28 2.0 3.0 0.00 0.05 0.05 88 1015.5
20260905145033 84 354 2.0 4.0 0.00 0.05 0.05 89 1015.6
20260905144023 84 78 1.0 3.0 0.00 0.05 0.05 93 1015.5
20260905143030 82 0.0 0.0 0.00 0.05 0.05 94 1015.5
20260905142020 82 0.0 0.0 0.00 0.05 0.05 96 1015.6
20260905141029 81 0.0 0.0 0.00 0.05 0.05 96 1015.4
20260905140036 80 0.0 0.0 0.05 0.05 0.05 96 1015.4
20260905135028 79 0.0 0.0 0.05 0.05 0.05 96 1015.4
20260905134034 79 0.0 0.0 0.05 0.05 0.05 95 1015.5
20260905133023 78 0.0 0.0 0.05 0.05 0.05 94 1015.5
20260905132031 78 167 1.0 3.0 0.05 0.05 0.05 94 1015.5
20260905131021 79 0.0 0.0 0.05 0.05 0.05 93 1015.5
20260905130029 79 57 2.0 4.0 0.00 0.00 0.00 91 1015.6
20260905125037 79 0.0 0.0 0.00 0.00 0.00 91 1015.5
20260905124026 80 0.0 0.0 0.00 0.00 0.00 94 1015.4
20260905123034 80 0.0 0.0 0.00 0.00 0.00 94 1015.3
20260905122023 79 0.0 0.0 0.00 0.00 0.00 94 1015.3
20260905121032 79 0.0 0.0 0.00 0.01 0.00 95 1015.3
20260905120022 78 0.0 0.0 0.00 0.02 0.00 95 1015.3
20260905115029 78 0.0 0.0 0.00 0.02 0.00 95 1015.2
20260905114038 78 0.0 0.0 0.00 0.05 0.00 95 1015.1
20260905113027 78 0.0 0.0 0.00 0.12 0.00 95 1014.9
20260905112034 78 0.0 0.0 0.00 0.12 0.00 95 1014.6
20260905111025 78 0.0 0.0 0.00 0.12 0.00 95 1014.4
20260905110032 78 0.0 0.0 0.00 0.12 0.00 94 1014.3
20260905105022 78 0.0 0.0 0.00 0.12 0.00 94 1014.3
20260905104030 78 0.0 0.0 0.00 0.12 0.00 94 1014.3
20260905103039 78 0.0 0.0 0.00 0.12 0.00 94 1014.2
20260905102027 78 0.0 0.0 0.00 0.12 0.00 94 1014.3
20260905101035 78 0.0 0.0 0.00 0.12 0.00 93 1014.3
20260905100025 78 0.0 0.0 0.00 0.12 0.00 93 1014.5
20260905095032 78 0.0 0.0 0.00 0.12 0.00 93 1014.6
20260905094022 78 0.0 0.0 0.00 0.12 0.00 93 1014.5
20260905093030 78 0.0 0.0 0.00 0.12 0.00 93 1014.6
20260905092019 78 0.0 0.0 0.00 0.12 0.00 93 1014.5
20260905091027 78 0.0 0.0 0.00 0.12 0.00 93 1014.5
20260905090054 78 0.0 0.0 0.00 0.12 0.00 93 1014.6
20260905085025 79 0.0 0.0 0.00 0.12 0.00 93 1014.4
20260905084033 79 0.0 0.0 0.00 0.12 0.00 93 1014.4
20260905083022 79 0.0 0.0 0.00 0.12 0.00 93 1014.4
20260905082033 79 0.0 0.0 0.00 0.12 0.00 93 1014.2
20260905081020 79 0.0 0.0 0.00 0.12 0.00 93 1014.1
20260905080028 79 0.0 0.0 0.00 0.12 0.00 93 1014.1
20260905075036 79 0.0 0.0 0.00 0.12 0.00 94 1014.1
20260905074026 79 0.0 0.0 0.00 0.12 0.00 94 1014.2
20260905073034 79 0.0 0.0 0.00 0.12 0.00 94 1014.3
20260905072023 79 0.0 0.0 0.00 0.12 0.00 94 1014.3
20260905071031 79 0.0 0.0 0.00 0.12 0.00 94 1014.2
20260905070020 79 0.0 0.0 0.00 0.12 0.00 93 1014.2
20260905065031 80 0.0 0.0 0.00 0.12 0.00 93 1014.1
20260905064057 80 0.0 0.0 0.00 0.12 0.00 93 1014.2
20260905063106 80 0.0 0.0 0.00 0.12 0.00 93 1014.1
20260905062034 80 0.0 0.0 0.00 0.12 0.00 93 1014.2
20260905061024 80 0.0 0.0 0.00 0.12 0.00 92 1014.2
20260905060032 80 0.0 0.0 0.00 0.12 0.00 92 1014.2
20260905055021 81 0.0 0.0 0.00 0.12 0.00 91 1014.4
20260905054029 81 0.0 0.0 0.00 0.12 0.00 91 1014.4
20260905053037 80 0.0 0.0 0.00 0.12 0.00 90 1014.4
20260905052027 80 0.0 0.0 0.00 0.12 0.00 90 1014.6
20260905051035 80 0.0 0.0 0.00 0.12 0.00 90 1014.6
20260905050025 80 0.0 0.0 0.00 0.12 0.00 90 1014.6